Rogers, AR

1:24 AM CDT on June 26, 2017 (GMT -0500)
Rogers Municipal-Carter

Weather History for KROG - October, 2014

Change the Weather History Date:

Saturday, October 25, 2014

  Actual Average Record
Temperature  
Mean Temperature 70 °F -  
Max Temperature 82 °F 65 °F 82 °F (2014)
Min Temperature 59 °F 47 °F 28 °F (2005)
Cooling Degree Days 6    
Growing Degree Days 20 (Base 50)    
Moisture  
Dew Point 60 °F    
Average Humidity 76    
Maximum Humidity 90    
Minimum Humidity 51    
Precipitation  
Precipitation 0.00 in - - ()
Sea Level Pressure  
Sea Level Pressure 30.06 in    
Wind  
Wind Speed 7 mph (SSW)    
Max Wind Speed 10 mph    
Max Gust Speed -    
Visibility 10 miles    
Events      
Averages and records for this station are not official NWS values.
T = Trace of Precipitation, MM = Missing Value Source: NWS Daily Summary

Daily Weather History Graph

Daily Weather History Graph

Search for Another Location

Airport or City:

Trip Planner

Search our weather history database for the weather conditions in past years. The results will help you decide how hot, cold, wet, or windy it might be!

Date:

Astronomy

Oct. 25, 2014 Rise Set
Actual Time 7:32 AM CDT 6:27 PM CDT
Civil Twilight 7:06 AM CDT 6:53 PM CDT
Nautical Twilight 6:36 AM CDT 7:24 PM CDT
Astronomical Twilight 6:06 AM CDT 7:54 PM CDT
Moon 9:10 AM CDT (10/25) 7:53 PM CDT (10/25)
Length of Visible Light 11h 47m
Length of Day
10h 54m
Waxing Crescent, 3% of the Moon is Illuminated
Oct 25
Waxing Crescent
Oct 30
First Quarter
Nov 6
Full
Nov 14
Last Quarter
Nov 22
New

Hourly Weather History & Observations

Time (CDT) Temp. Heat Index Dew Point Humidity Pressure Visibility Wind Dir Wind Speed Gust Speed Precip Events Conditions
12:57 AM 61.0 °F - 57.0 °F 87% 30.07 in 10.0 mi South 6.9 mph - N/A   Clear
1:57 AM 62.1 °F - 57.9 °F 86% 30.06 in 10.0 mi SSW 8.1 mph - N/A   Clear
2:57 AM 62.1 °F - 57.9 °F 86% 30.06 in 10.0 mi SSW 9.2 mph - N/A   Clear
3:57 AM 62.1 °F - 57.0 °F 84% 30.06 in 10.0 mi SSW 8.1 mph - N/A   Clear
4:57 AM 60.1 °F - 57.0 °F 90% 30.08 in 10.0 mi SW 3.5 mph - N/A   Clear
5:57 AM 59.0 °F - 55.9 °F 90% 30.08 in 10.0 mi South 4.6 mph - N/A   Clear
6:57 AM 61.0 °F - 57.0 °F 87% 30.08 in 10.0 mi SSW 8.1 mph - N/A   Clear
7:57 AM 61.0 °F - 57.0 °F 87% 30.09 in 10.0 mi SSW 6.9 mph - N/A   Clear
8:57 AM 64.9 °F - 59.0 °F 81% 30.11 in 10.0 mi SSW 9.2 mph - N/A   Clear
9:57 AM 68.0 °F - 59.0 °F 73% 30.12 in 10.0 mi SW 10.4 mph - N/A   Clear
10:57 AM 70.0 °F - 61.0 °F 73% 30.12 in 10.0 mi West 9.2 mph - N/A   Clear
11:57 AM 73.9 °F - 62.1 °F 66% 30.09 in 10.0 mi SW 9.2 mph - N/A   Clear
12:57 PM 77.0 °F - 63.0 °F 62% 30.08 in 10.0 mi WSW 8.1 mph - N/A   Clear
1:57 PM 79.0 °F - 63.0 °F 58% 30.06 in 10.0 mi WSW 4.6 mph - N/A   Clear
2:57 PM 81.0 °F 82.2 °F 63.0 °F 54% 30.04 in 10.0 mi SW 4.6 mph - N/A   Clear
3:57 PM 82.0 °F 83.0 °F 62.1 °F 51% 30.03 in 10.0 mi WSW 8.1 mph - N/A   Clear
4:57 PM 81.0 °F 81.9 °F 62.1 °F 52% 30.03 in 10.0 mi West 5.8 mph - N/A   Clear
5:57 PM 78.1 °F - 62.1 °F 58% 30.03 in 10.0 mi SW 5.8 mph - N/A   Clear
6:57 PM 72.0 °F - 62.1 °F 71% 30.04 in 10.0 mi Calm Calm - N/A   Clear
7:57 PM 69.1 °F - 61.0 °F 75% 30.04 in 10.0 mi SSE 4.6 mph - N/A   Clear
8:57 PM 66.9 °F - 61.0 °F 81% 30.04 in 10.0 mi SSE 3.5 mph - N/A   Clear
9:57 PM 64.9 °F - 60.1 °F 84% 30.04 in 10.0 mi SSE 4.6 mph - N/A   Clear
10:57 PM 64.0 °F - 60.1 °F 87% 30.03 in 10.0 mi SE 3.5 mph - N/A   Clear
11:57 PM 63.0 °F - 60.1 °F 90% 30.02 in 10.0 mi SSE 5.8 mph - N/A   Clear